"Pseudo-MPEC" for P10OfWr

Created 2019 Jun 20 19:07:23 UT using Find_Orb

Click here for an explanation of pseudo-MPECs

 
 Astrometry: 
     P10OfWr  C2019 05 29wZnj_Astrometry0hW==Cjp).yG+nredacted;]Mb]\,XvO0VDTpF51
     P10OfWr  C2019 05 29.p84NUPExu;\)o)h=f;Y#clickQe\MoF^9TGpl6x!@C;9\xbe@%+F51
     P10OfWr  C2019 05 2959.gXDnMjR@j`B;RX9Tx7.nPDFlcgKndCC!8JkDE6+AQ7yjEQ[-yF51
     P10OfWr  C2019 05 291QW:A)bwm?uj@3oe1:!p[R.4w-?X;?Dls!a:*#kRBfBS7(e+][f6F51
     P10OfWr  C2019 06 01CTgQtylmw8fySZ]WKiSlfJEW,dci)YC^FtXF@KChereYkvfK4CPWF51
     P10OfWr  C2019 06 01QBC!B!-,v,GVP_V$qVyvTXg*x8rBCPs?sNaN[Hl1TnforA^SR=%.F51
     P10OfWr  C2019 06 01!NiGL[explanation?H$ouDiI_q^-dp2kTeCqjRgln;5oBp5jO^fF51

Station data:
(F51) Pan-STARRS 1, Haleakala  (N20.707235 W156.255910)  US/Hawaii.
   Observers N. Primak, A. Schultz, S. Watters, J. Thiel, T. Goggia. Measurer
   PS1 Science Consortium. 1.8-m Ritchey-Chrétien + CCD.

Orbital elements:  P10OfWr
   Perihelion 2016 Oct 18.030204 +/- 321 TT =  0:43:29 (JD 2457679.530204)
Epoch 2019 Jun  1.0 TT = JDT 2458635.5                        AutoNEOCP
M 168.19122540 +/- 110              (J2000 ecliptic)
n   0.17593780 +/- 0.206            Peri.  266.14661 +/- 80
a   3.15425359 +/- 2.47             Node   100.36846 +/- 37
e   0.1895125 +/- 0.211             Incl.   26.33907 +/- 17
P   5.60                   H 15.7   G  0.15   U 11.7  SR
q 2.55648309 +/- 1.53    Q 3.75202409 +/- 74.3
From 7 observations 2019 May 29-June 1; mean residual 0".09
Residuals in arcseconds: 
190529 F51  .04+  .11-    190529 F51  .05+  .03-    190601 F51  .16-  .01-    
190529 F51  .06-  .03+    190601 F51  .09+  .16+    
190529 F51  .02-  .12+    190601 F51  .07+  .15-    

Ephemerides (geocentric):
Date (UTC) HH   RA              Dec         delta   r     elong  mag " sig PA
---- -- -- --  -------------   -----------  ------ ------ -----  --- ---- ---
2019 06 20 19  11 39 33.409   +29 40 17.97  3.8716 3.7476  75.4 22.4 1046  26
2019 06 20 20  11 39 34.890   +29 39 55.62  3.8721 3.7476  75.4 22.4 1050  26
2019 06 20 21  11 39 36.373   +29 39 33.27  3.8727 3.7476  75.4 22.4 1054  26
2019 06 20 22  11 39 37.857   +29 39 10.91  3.8732 3.7476  75.4 22.4 1058  26
2019 06 20 23  11 39 39.343   +29 38 48.55  3.8737 3.7476  75.3 22.4 1062  26
2019 06 21 00  11 39 40.829   +29 38 26.18  3.8743 3.7476  75.3 22.4 1066  26
2019 06 21 01  11 39 42.317   +29 38 03.82  3.8748 3.7476  75.3 22.4 1070  26
2019 06 21 02  11 39 43.806   +29 37 41.45  3.8753 3.7476  75.2 22.4 1074  26
2019 06 21 03  11 39 45.297   +29 37 19.07  3.8759 3.7476  75.2 22.4 1078  26
2019 06 21 04  11 39 46.788   +29 36 56.70  3.8764 3.7476  75.2 22.4 1083  26
2019 06 21 05  11 39 48.281   +29 36 34.32  3.8770 3.7476  75.2 22.4 1087  26
2019 06 21 06  11 39 49.775   +29 36 11.94  3.8775 3.7476  75.1 22.4 1091  26
2019 06 21 07  11 39 51.270   +29 35 49.55  3.8780 3.7477  75.1 22.4 1095  26
2019 06 21 08  11 39 52.766   +29 35 27.17  3.8786 3.7477  75.1 22.4 1099  26
2019 06 21 09  11 39 54.264   +29 35 04.78  3.8791 3.7477  75.0 22.4 1103  26
2019 06 21 10  11 39 55.763   +29 34 42.38  3.8796 3.7477  75.0 22.4 1107  26
2019 06 21 11  11 39 57.263   +29 34 19.99  3.8802 3.7477  75.0 22.4 1111  26
2019 06 21 12  11 39 58.764   +29 33 57.59  3.8807 3.7477  75.0 22.4 1115  26
2019 06 21 13  11 40 00.266   +29 33 35.18  3.8812 3.7477  74.9 22.4 1120  26
2019 06 21 14  11 40 01.770   +29 33 12.78  3.8818 3.7477  74.9 22.4 1124  26
2019 06 21 15  11 40 03.275   +29 32 50.37  3.8823 3.7477  74.9 22.4 1128  26
2019 06 21 16  11 40 04.781   +29 32 27.96  3.8828 3.7477  74.8 22.4 1132  26
2019 06 21 17  11 40 06.288   +29 32 05.55  3.8834 3.7477  74.8 22.4 1136  26
2019 06 21 18  11 40 07.797   +29 31 43.13  3.8839 3.7477  74.8 22.4 1140  26
2019 06 21 19  11 40 09.306   +29 31 20.71  3.8844 3.7477  74.8 22.4 1145  26
2019 06 21 20  11 40 10.817   +29 30 58.29  3.8850 3.7478  74.7 22.4 1149  26
2019 06 21 21  11 40 12.329   +29 30 35.86  3.8855 3.7478  74.7 22.4 1153  26
2019 06 21 22  11 40 13.843   +29 30 13.43  3.8860 3.7478  74.7 22.4 1157  26
2019 06 21 23  11 40 15.357   +29 29 51.00  3.8866 3.7478  74.6 22.4 1161  26
2019 06 22 00  11 40 16.873   +29 29 28.56  3.8871 3.7478  74.6 22.4 1166  26
2019 06 22 01  11 40 18.390   +29 29 06.13  3.8876 3.7478  74.6 22.4 1170  26
2019 06 22 02  11 40 19.908   +29 28 43.69  3.8881 3.7478  74.6 22.4 1174  26
2019 06 22 03  11 40 21.427   +29 28 21.24  3.8887 3.7478  74.5 22.4 1178  26
2019 06 22 04  11 40 22.948   +29 27 58.80  3.8892 3.7478  74.5 22.4 1182  26
2019 06 22 05  11 40 24.470   +29 27 36.35  3.8897 3.7478  74.5 22.4 1187  26
2019 06 22 06  11 40 25.993   +29 27 13.90  3.8903 3.7478  74.4 22.4 1191  26
2019 06 22 07  11 40 27.517   +29 26 51.44  3.8908 3.7478  74.4 22.4 1195  26
2019 06 22 08  11 40 29.042   +29 26 28.99  3.8913 3.7478  74.4 22.4 1199  26
2019 06 22 09  11 40 30.569   +29 26 06.52  3.8919 3.7479  74.4 22.4 1204  26
2019 06 22 10  11 40 32.096   +29 25 44.06  3.8924 3.7479  74.3 22.4 1208  26
2019 06 22 11  11 40 33.625   +29 25 21.60  3.8929 3.7479  74.3 22.4 1212  26
2019 06 22 12  11 40 35.156   +29 24 59.13  3.8935 3.7479  74.3 22.4 1217  26
2019 06 22 13  11 40 36.687   +29 24 36.66  3.8940 3.7479  74.2 22.4 1221  26
2019 06 22 14  11 40 38.219   +29 24 14.18  3.8945 3.7479  74.2 22.4 1225  26
2019 06 22 15  11 40 39.753   +29 23 51.70  3.8951 3.7479  74.2 22.4 1230  26
2019 06 22 16  11 40 41.288   +29 23 29.22  3.8956 3.7479  74.2 22.4 1234  26
2019 06 22 17  11 40 42.824   +29 23 06.74  3.8961 3.7479  74.1 22.4 1238  26
2019 06 22 18  11 40 44.361   +29 22 44.25  3.8967 3.7479  74.1 22.4 1243  26